Location: Chippewa Lake
(41.0698°N, 81.9010°W)
Time: 21:51:51
(UTC+00:00)

SPOT 5 - Pass Details

Date: 09 May 2021
Orbit: 623 x 815 km, 98.2° (Epoch: 17 June)

Event Time Altitude Azimuth Distance (km) Brightness Sun altitude
Exits shadow 03:29:39 57° 228° (SW) 889 3.2 -25.8°
Maximum altitude 03:30:12 61° 259° (W) 861 3.2 -25.8°
Drops below altitude 10° 03:35:21 10° 340° (NNW) 2,356 6.5 -26.3°
Sets 03:37:47 0° 344° (NNW) 3,310 7.5 -26.5°
